| time (UTC) | temp F | wind direction | speed knots | gust knots | rain 1hr in | rain 24hr in | rain mn in | humidity % | barometer mb |
| 20260506164607 | 0 | 270 | 7.0 | 17.4 | 0.00 | 0.00 | 0.00 | 998.8 | |
| 20260506163429 | 0 | 158 | 10.4 | 19.1 | 0.00 | 0.00 | 0.00 | 998.7 | |
| 20260506162252 | 0 | 180 | 11.3 | 19.1 | 0.00 | 0.00 | 0.00 | 999.1 | |
| 20260506161113 | 0 | 135 | 11.3 | 20.9 | 0.00 | 0.00 | 0.00 | 999.2 | |
| 20260506155934 | 0 | 338 | 5.2 | 13.9 | 0.00 | 0.00 | 0.00 | 999.2 | |
| 20260506154757 | 0 | 180 | 9.6 | 20.0 | 0.00 | 0.00 | 0.00 | 999.3 | |
| 20260506153619 | 0 | 225 | 7.8 | 19.1 | 0.00 | 0.00 | 0.00 | 999.5 | |
| 20260506152441 | 0 | 248 | 8.7 | 20.0 | 0.00 | 0.00 | 0.00 | 999.8 | |
| 20260506151303 | 0 | 315 | 8.7 | 20.9 | 0.00 | 0.00 | 0.00 | 999.9 | |
| 20260506150123 | 0 | 338 | 12.2 | 16.5 | 0.00 | 0.00 | 0.00 | 1000.0 | |
| 20260506144944 | 0 | 225 | 10.4 | 16.5 | 0.00 | 0.00 | 0.00 | 1000.1 | |
| 20260506143806 | 0 | 338 | 10.4 | 18.2 | 0.00 | 0.00 | 0.00 | 1000.2 | |
| 20260506142625 | 0 | 225 | 11.3 | 15.6 | 0.00 | 0.00 | 0.00 | 1000.6 | |
| 20260506141449 | 0 | 315 | 5.2 | 16.5 | 0.00 | 0.00 | 0.00 | 1000.7 | |
| 20260506140307 | 0 | 180 | 7.0 | 19.1 | 0.00 | 0.00 | 0.00 | 1000.8 | |
| 20260506135127 | 0 | 180 | 11.3 | 15.6 | 0.00 | 0.00 | 0.00 | 1000.7 | |
| 20260506133953 | 0 | 248 | 14.8 | 19.1 | 0.00 | 0.00 | 0.00 | 1000.7 | |
| 20260506132810 | 0 | 315 | 16.5 | 18.2 | 0.00 | 0.00 | 0.00 | 1000.8 | |
| 20260506131630 | 0 | 248 | 7.0 | 15.6 | 0.00 | 0.00 | 0.00 | 1001.0 | |
| 20260506130452 | 0 | 248 | 5.2 | 11.3 | 0.00 | 0.00 | 0.00 | 1001.4 | |
| 20260506125313 | 0 | 338 | 7.8 | 13.9 | 0.00 | 0.00 | 0.00 | 1001.6 | |
| 20260506124134 | 0 | 225 | 4.3 | 8.7 | 0.00 | 0.00 | 0.00 | 1001.8 | |
| 20260506122954 | 0 | 180 | 2.6 | 12.2 | 0.00 | 0.00 | 0.00 | 1001.9 | |
| 20260506121815 | 0 | 180 | 6.1 | 13.9 | 0.00 | 0.00 | 0.00 | 1001.8 | |
| 20260506120637 | 0 | 180 | 5.2 | 9.6 | 0.00 | 0.00 | 0.00 | 1001.8 | |
| 20260506115458 | 0 | 225 | 4.3 | 12.2 | 0.00 | 0.00 | 0.00 | 1001.8 | |
| 20260506114329 | 0 | 315 | 1.7 | 7.0 | 0.00 | 0.00 | 0.00 | 1001.9 | |
| 20260506113142 | 0 | 225 | 4.3 | 9.6 | 0.00 | 0.00 | 0.00 | 1002.0 | |
| 20260506112004 | 0 | 225 | 7.0 | 11.3 | 0.00 | 0.00 | 0.00 | 1002.1 | |
| 20260506110826 | 0 | 180 | 9.6 | 12.2 | 0.00 | 0.00 | 0.00 | 1002.4 | |
| 20260506105646 | 0 | 338 | 2.6 | 10.4 | 0.00 | 0.00 | 0.00 | 1002.4 | |
| 20260506104508 | 0 | 338 | 6.1 | 13.9 | 0.00 | 0.00 | 0.00 | 1002.3 | |
| 20260506103330 | 0 | 225 | 7.8 | 11.3 | 0.00 | 0.00 | 0.00 | 1002.7 | |
| 20260506102152 | 0 | 338 | 5.2 | 10.4 | 0.00 | 0.00 | 0.00 | 1002.7 | |
| 20260506101014 | 0 | 338 | 4.3 | 13.0 | 0.00 | 0.00 | 0.00 | 1002.8 | |
| 20260506095830 | 0 | 225 | 4.3 | 10.4 | 0.00 | 0.00 | 0.00 | 1002.9 | |
| 20260506094651 | 0 | 180 | 3.5 | 9.6 | 0.00 | 0.00 | 0.00 | 1003.0 | |
| 20260506093513 | 0 | 180 | 7.0 | 12.2 | 0.00 | 0.00 | 0.00 | 1002.7 | |
| 20260506092332 | 0 | 248 | 7.0 | 9.6 | 0.00 | 0.00 | 0.00 | 1002.7 | |
| 20260506091153 | 0 | 225 | 4.3 | 9.6 | 0.00 | 0.00 | 0.00 | 1002.9 | |
| 20260506090015 | 0 | 225 | 7.0 | 7.0 | 0.00 | 0.00 | 0.00 | 1003.1 | |
| 20260506084837 | 0 | 225 | 4.3 | 10.4 | 0.00 | 0.00 | 0.00 | 1003.1 | |
| 20260506083659 | 0 | 315 | 3.5 | 8.7 | 0.00 | 0.00 | 0.00 | 1003.5 | |
| 20260506082519 | 0 | 338 | 2.6 | 8.7 | 0.00 | 0.00 | 0.00 | 1003.6 | |
| 20260506081341 | 0 | 225 | 2.6 | 6.1 | 0.00 | 0.00 | 0.00 | 1003.6 | |
| 20260506080201 | 0 | 338 | 4.3 | 8.7 | 0.00 | 0.00 | 0.00 | 1003.6 | |
| 20260506072706 | 0 | 293 | 6.1 | 7.8 | 0.00 | 0.00 | 0.00 | 1004.1 | |
| 20260506071527 | 0 | 338 | 6.1 | 9.6 | 0.00 | 0.00 | 0.00 | 1004.0 | |
| 20260506070347 | 0 | 315 | 2.6 | 8.7 | 0.00 | 0.00 | 0.00 | 1004.3 | |
| 20260506061655 | 0 | 293 | 6.1 | 9.6 | 0.00 | 0.00 | 0.00 | 1004.2 | |
| 20260506060514 | 0 | 270 | 3.5 | 7.8 | 0.00 | 0.00 | 0.00 | 1004.4 | |
| 20260506050639 | 0 | 225 | 0.9 | 5.2 | 0.00 | 0.00 | 0.00 | 1004.4 | |
| 20260506044315 | 0 | 315 | 0.9 | 1.7 | 0.00 | 0.00 | 0.00 | 1004.4 | |
| 20260506043133 | 0 | 248 | 0.9 | 1.7 | 0.00 | 0.00 | 0.00 | 1004.4 | |
| 20260506041950 | 0 | 293 | 0.0 | 0.9 | 0.00 | 0.00 | 0.00 | 1004.3 | |
| 20260506040808 | 0 | 270 | 0.0 | 1.7 | 0.00 | 0.00 | 0.00 | 1004.3 | |
| 20260506035626 | 0 | 270 | 1.7 | 1.7 | 0.00 | 0.00 | 0.00 | 1004.0 | |
| 20260506034444 | 0 | 270 | 1.7 | 1.7 | 0.00 | 0.00 | 0.00 | 1004.0 | |
| 20260506033302 | 0 | 225 | 0.0 | 0.0 | 0.00 | 0.00 | 0.00 | 1003.7 | |
| 20260506030938 | 0 | 270 | 0.9 | 1.7 | 0.00 | 0.00 | 0.00 | 1003.7 | |
| 20260506025754 | 0 | 315 | 0.0 | 1.7 | 0.00 | 0.00 | 0.00 | 1003.8 | |
| 20260506024611 | 0 | 338 | 0.0 | 2.6 | 0.00 | 0.00 | 0.00 | 1003.8 | |
| 20260506023427 | 0 | 315 | 0.9 | 2.6 | 0.00 | 0.00 | 0.00 | 1003.9 | |
| 20260506022244 | 0 | 315 | 0.0 | 1.7 | 0.00 | 0.00 | 0.00 | 1003.8 | |
| 20260506021101 | 0 | 293 | 0.9 | 1.7 | 0.00 | 0.00 | 0.00 | 1003.6 | |
| 20260506015921 | 0 | 293 | 0.0 | 3.5 | 0.00 | 0.00 | 0.00 | 1003.3 | |
| 20260506014738 | 0 | 315 | 2.6 | 7.8 | 0.00 | 0.00 | 0.00 | 1003.3 | |
| 20260506013555 | 0 | 0 | 3.5 | 7.8 | 0.00 | 0.00 | 0.00 | 1003.3 | |
| 20260506012411 | 0 | 338 | 2.6 | 6.1 | 0.00 | 0.00 | 0.00 | 1003.3 | |
| 20260506011227 | 0 | 338 | 6.1 | 10.4 | 0.00 | 0.00 | 0.00 | 1003.0 | |
| 20260506010041 | 0 | 0 | 3.5 | 7.8 | 0.00 | 0.00 | 0.00 | 1003.0 | |
| 20260506004859 | 0 | 338 | 3.5 | 9.6 | 0.00 | 0.00 | 0.00 | 1003.2 | |
| 20260506003717 | 0 | 293 | 4.3 | 9.6 | 0.00 | 0.00 | 0.00 | 1003.1 | |
| 20260506002535 | 0 | 23 | 6.1 | 12.2 | 0.00 | 0.00 | 0.00 | 1003.1 | |
| 20260506001353 | 0 | 23 | 5.2 | 10.4 | 0.00 | 0.00 | 0.00 | 1003.0 | |
| 20260506000212 | 0 | 293 | 2.6 | 4.3 | 0.00 | 0.00 | 0.00 | 1002.9 | |
| 20260505235027 | 0 | 45 | 1.7 | 3.5 | 0.00 | 0.00 | 0.00 | 1002.7 | |
| 20260505233846 | 0 | 315 | 0.0 | 2.6 | 0.00 | 0.00 | 0.00 | 1003.0 | |
| 20260505232700 | 0 | 338 | 1.7 | 2.6 | 0.00 | 0.00 | 0.00 | 1003.1 | |
| 20260505231518 | 0 | 315 | 0.9 | 3.5 | 0.00 | 0.00 | 0.00 | 1002.8 | |
| 20260505230336 | 0 | 225 | 1.7 | 3.5 | 0.00 | 0.00 | 0.00 | 1002.6 | |
| 20260505225156 | 0 | 158 | 3.5 | 7.0 | 0.00 | 0.00 | 0.00 | 1002.4 | |
| 20260505222823 | 0 | 225 | 4.3 | 8.7 | 0.00 | 0.00 | 0.00 | 1002.2 | |
| 20260505221642 | 0 | 248 | 4.3 | 11.3 | 0.00 | 0.00 | 0.00 | 1002.2 | |
| 20260505220459 | 0 | 203 | 4.3 | 7.0 | 0.00 | 0.00 | 0.00 | 1002.1 | |
| 20260505215316 | 0 | 180 | 3.5 | 7.8 | 0.00 | 0.00 | 0.00 | 1001.9 | |
| 20260505214133 | 0 | 180 | 2.6 | 9.6 | 0.00 | 0.00 | 0.00 | 1001.7 | |
| 20260505212949 | 0 | 180 | 8.7 | 13.0 | 0.00 | 0.00 | 0.00 | 1001.5 | |
| 20260505211806 | 0 | 135 | 2.6 | 11.3 | 0.00 | 0.00 | 0.00 | 1001.6 | |
| 20260505210625 | 0 | 180 | 8.7 | 14.8 | 0.00 | 0.00 | 0.00 | 1001.5 | |
| 20260505205441 | 0 | 135 | 7.0 | 12.2 | 0.00 | 0.00 | 0.00 | 1001.5 | |
| 20260505204259 | 0 | 180 | 7.8 | 15.6 | 0.00 | 0.00 | 0.00 | 1001.5 | |
| 20260505203115 | 0 | 180 | 6.1 | 13.9 | 0.00 | 0.00 | 0.00 | 1001.6 | |
| 20260505201933 | 0 | 135 | 12.2 | 13.0 | 0.00 | 0.00 | 0.00 | 1001.5 | |
| 20260505200750 | 0 | 135 | 6.1 | 13.0 | 0.00 | 0.00 | 0.00 | 1001.4 | |
| 20260505195607 | 0 | 180 | 7.0 | 13.9 | 0.00 | 0.00 | 0.00 | 1001.4 | |
| 20260505194424 | 0 | 158 | 6.1 | 13.9 | 0.00 | 0.00 | 0.00 | 1001.3 | |
| 20260505193243 | 0 | 158 | 8.7 | 12.2 | 0.00 | 0.00 | 0.00 | 1001.3 | |
| 20260505192100 | 0 | 180 | 7.8 | 15.6 | 0.00 | 0.00 | 0.00 | 1001.1 | |
| 20260505190918 | 0 | 180 | 10.4 | 14.8 | 0.00 | 0.00 | 0.00 | 1001.1 | |
| 20260505185734 | 0 | 180 | 7.8 | 13.9 | 0.00 | 0.00 | 0.00 | 1000.9 | |
| 20260505184548 | 0 | 180 | 10.4 | 14.8 | 0.00 | 0.00 | 0.00 | 1000.8 | |
| 20260505183407 | 0 | 180 | 7.0 | 14.8 | 0.00 | 0.00 | 0.00 | 1000.6 | |
| 20260505182228 | 0 | 135 | 8.7 | 10.4 | 0.00 | 0.00 | 0.00 | 1000.4 | |
| 20260505181051 | 0 | 135 | 3.5 | 12.2 | 0.00 | 0.00 | 0.00 | 1000.3 | |
| 20260505175913 | 0 | 90 | 7.8 | 12.2 | 0.00 | 0.00 | 0.00 | 1000.3 | |
| 20260505174735 | 0 | 225 | 4.3 | 10.4 | 0.00 | 0.00 | 0.00 | 1000.0 | |
| 20260505173557 | 0 | 180 | 5.2 | 9.6 | 0.00 | 0.00 | 0.00 | 1000.0 | |
| 20260505172417 | 0 | 68 | 4.3 | 8.7 | 0.00 | 0.00 | 0.00 | 1000.0 | |
| 20260505171240 | 0 | 68 | 6.1 | 7.0 | 0.00 | 0.00 | 0.00 | 999.9 |